sat.trackr.live / text

‹ back to catalog

GSAT0224 (GALILEO 28)

NORAD 49810 · 2021-116B

PAYLOAD ACTIVE UNKNOWN

§ Identity

Operator
Country
ESA
Launch date
2021-12-05
Launch site
FRGUI
Launch vehicle
Mass (kg)
RCS (m²)

Purposes: earth_obs, nav

External: N2YO · Heavens-Above · Gunter

§ Orbital elements

Epoch: 2026-09-09T08:37:25.808736Z

Period
844.69 min
Inclination
57.1274°
Eccentricity
0.0003174
Mean motion
1.70476208 rev/d
Perigee alt
23,212.5 km
Apogee alt
23,231.3 km
Semi-major
29,600.1 km
B*
0.0000e+0
RAAN
339.4008°
Arg perigee
212.6566°
Mean anomaly
198.2521°
Rev number
2,964

§ Raw data

GSAT0224 (GALILEO 28)1 49810U 21116B   26252.35932649 -.00000100  00000+0  00000+0 0  99912 49810  57.1274 339.4008 0003174 212.6566 198.2521  1.70476208 29644

JSON: /api/v1/satellites/49810 · /tle

For live sub-satellite position, see the globe view (requires WebGL).

§ Visibility from observer

Set your observer location to see the next 7 days of passes ≥ 10°. The values pass through the URL so the page stays shareable.

No JS? Fill the form by hand. The geolocation button needs JavaScript.